#datetime,building,power
2023-03-16T00:01:00,cen,9.61
2023-03-16T00:02:00,cen,4.80
2023-03-16T00:04:00,cen,8.39
2023-03-16T00:05:00,cen,3.60
2023-03-16T00:06:00,cen,4.79
2023-03-16T00:08:00,cen,8.41
2023-03-16T00:09:00,cen,3.60
2023-03-16T00:11:00,cen,9.59
2023-03-16T00:12:00,cen,3.60
2023-03-16T00:14:00,cen,9.59
2023-03-16T00:15:00,cen,3.60
2023-03-16T00:16:00,cen,4.80
2023-03-16T00:17:00,cen,3.59
2023-03-16T00:19:00,cen,9.61
2023-03-16T00:21:00,cen,7.19
2023-03-16T00:22:00,cen,4.80
2023-03-16T00:23:00,cen,3.60
2023-03-16T00:25:00,cen,10.80
2023-03-16T00:27:00,cen,9.59
2023-03-16T00:29:00,cen,9.61
2023-03-16T00:31:00,cen,8.39
2023-03-16T00:33:00,cen,9.59
2023-03-16T00:34:00,cen,3.60
2023-03-16T00:36:00,cen,8.41
2023-03-16T00:38:00,cen,9.59
2023-03-16T00:40:00,cen,8.39
2023-03-16T00:41:00,cen,6.01
2023-03-16T00:43:00,cen,8.39
2023-03-16T00:44:00,cen,4.80
2023-03-16T00:46:00,cen,8.41
2023-03-16T00:48:00,cen,8.39
2023-03-16T00:49:00,cen,4.80
2023-03-16T00:51:00,cen,8.39
2023-03-16T00:53:00,cen,9.59
2023-03-16T00:54:00,cen,3.60
2023-03-16T00:56:00,cen,9.61
2023-03-16T00:58:00,cen,9.59
2023-03-16T01:00:00,cen,9.59
2023-03-16T01:02:00,cen,9.61
2023-03-16T01:03:00,cen,5.99
2023-03-16T01:05:00,cen,9.61
2023-03-16T01:06:00,cen,4.79
2023-03-16T01:08:00,cen,9.61
2023-03-16T01:09:00,cen,3.59
2023-03-16T01:11:00,cen,8.41
2023-03-16T01:12:00,cen,3.60
2023-03-16T01:13:00,cen,4.79
2023-03-16T01:15:00,cen,9.61
2023-03-16T01:17:00,cen,8.39
2023-03-16T01:18:00,cen,3.60
2023-03-16T01:20:00,cen,8.39
2023-03-16T01:22:00,cen,8.41
2023-03-16T01:24:00,cen,7.19
2023-03-16T01:26:00,cen,9.61
2023-03-16T01:28:00,cen,8.39
2023-03-16T01:29:00,cen,4.80
2023-03-16T01:31:00,cen,8.39
2023-03-16T01:33:00,cen,7.21
2023-03-16T01:34:00,cen,2.40
2023-03-16T01:36:00,cen,8.39
2023-03-16T01:37:00,cen,4.80
2023-03-16T01:38:00,cen,3.59
2023-03-16T01:39:00,cen,4.80
2023-03-16T01:40:00,cen,3.60
2023-03-16T01:42:00,cen,8.39
2023-03-16T01:44:00,cen,9.61
2023-03-16T01:45:00,cen,5.99
2023-03-16T01:46:00,cen,3.60
2023-03-16T01:48:00,cen,10.80
2023-03-16T01:50:00,cen,9.61
2023-03-16T01:51:00,cen,4.79
2023-03-16T01:53:00,cen,9.61
2023-03-16T01:54:00,cen,4.79
2023-03-16T01:56:00,cen,8.41
2023-03-16T01:57:00,cen,3.60
2023-03-16T01:59:00,cen,9.59
2023-03-16T02:01:00,cen,9.59
2023-03-16T02:03:00,cen,8.41
2023-03-16T02:04:00,cen,4.79
2023-03-16T02:06:00,cen,8.41
2023-03-16T02:07:00,cen,5.99
2023-03-16T02:08:00,cen,4.80
2023-03-16T02:10:00,cen,8.41
2023-03-16T02:12:00,cen,9.59
2023-03-16T02:14:00,cen,7.19
2023-03-16T02:16:00,cen,9.61
2023-03-16T02:17:00,cen,3.60
2023-03-16T02:19:00,cen,8.39
2023-03-16T02:21:00,cen,7.21
2023-03-16T02:23:00,cen,9.59
2023-03-16T02:25:00,cen,8.39
2023-03-16T02:27:00,cen,8.41
2023-03-16T02:29:00,cen,7.19
2023-03-16T02:30:00,cen,3.60
2023-03-16T02:32:00,cen,9.59
2023-03-16T02:33:00,cen,6.01
2023-03-16T02:35:00,cen,8.39
2023-03-16T02:37:00,cen,10.81
2023-03-16T02:39:00,cen,10.80
2023-03-16T02:41:00,cen,8.39
2023-03-16T02:43:00,cen,9.61
2023-03-16T02:45:00,cen,9.59
2023-03-16T02:46:00,cen,3.60
2023-03-16T02:48:00,cen,9.59
2023-03-16T02:50:00,cen,8.41
2023-03-16T02:52:00,cen,10.80
2023-03-16T02:54:00,cen,26.40
2023-03-16T02:55:00,cen,13.20
2023-03-16T02:56:00,cen,13.21
2023-03-16T02:58:00,cen,14.40
2023-03-16T03:00:00,cen,8.39
2023-03-16T03:02:00,cen,8.39
2023-03-16T03:04:00,cen,9.61
2023-03-16T03:05:00,cen,3.60
2023-03-16T03:07:00,cen,8.39
2023-03-16T03:09:00,cen,9.59
2023-03-16T03:10:00,cen,4.80
2023-03-16T03:11:00,cen,6.01
2023-03-16T03:13:00,cen,8.39
2023-03-16T03:15:00,cen,8.41
2023-03-16T03:17:00,cen,8.39
2023-03-16T03:18:00,cen,6.01
2023-03-16T03:20:00,cen,8.39
2023-03-16T03:22:00,cen,8.39
2023-03-16T03:24:00,cen,8.41
2023-03-16T03:26:00,cen,9.59
2023-03-16T03:27:00,cen,4.80
2023-03-16T03:29:00,cen,8.39
2023-03-16T03:31:00,cen,7.21
2023-03-16T03:33:00,cen,7.19
2023-03-16T03:34:00,cen,4.80
2023-03-16T03:36:00,cen,8.41
2023-03-16T03:38:00,cen,7.19
2023-03-16T03:39:00,cen,2.40
2023-03-16T03:41:00,cen,8.39
2023-03-16T03:43:00,cen,9.61
2023-03-16T03:44:00,cen,4.79
2023-03-16T03:45:00,cen,3.60
2023-03-16T03:47:00,cen,8.41
2023-03-16T03:48:00,cen,4.79
2023-03-16T03:50:00,cen,9.61
2023-03-16T03:52:00,cen,8.39
2023-03-16T03:54:00,cen,8.39
2023-03-16T03:56:00,cen,8.41
2023-03-16T03:58:00,cen,9.59
2023-03-16T03:59:00,cen,3.60
2023-03-16T04:01:00,cen,8.39
2023-03-16T04:02:00,cen,4.80
2023-03-16T04:04:00,cen,9.61
2023-03-16T04:05:00,cen,3.59
2023-03-16T04:07:00,cen,9.61
2023-03-16T04:09:00,cen,9.59
2023-03-16T04:11:00,cen,9.59
2023-03-16T04:13:00,cen,10.81
2023-03-16T04:14:00,cen,5.99
2023-03-16T04:16:00,cen,10.81
2023-03-16T04:17:00,cen,4.79
2023-03-16T04:18:00,cen,4.80
2023-03-16T04:20:00,cen,14.40
2023-03-16T04:21:00,cen,4.80
2023-03-16T04:23:00,cen,10.80
2023-03-16T04:24:00,cen,4.80
2023-03-16T04:25:00,cen,5.99
2023-03-16T04:27:00,cen,10.80
2023-03-16T04:28:00,cen,4.80
2023-03-16T04:30:00,cen,12.00
2023-03-16T04:31:00,cen,4.80
2023-03-16T04:33:00,cen,9.59
2023-03-16T04:34:00,cen,3.60
2023-03-16T04:36:00,cen,14.40
2023-03-16T04:37:00,cen,7.21
2023-03-16T04:39:00,cen,10.80
2023-03-16T04:40:00,cen,4.80
2023-03-16T04:42:00,cen,10.80
2023-03-16T04:43:00,cen,4.80
2023-03-16T04:45:00,cen,12.00
2023-03-16T04:47:00,cen,9.59
2023-03-16T04:49:00,cen,12.00
2023-03-16T04:51:00,cen,9.61
2023-03-16T04:53:00,cen,12.00
2023-03-16T04:55:00,cen,12.00
2023-03-16T04:56:00,cen,4.80
2023-03-16T04:57:00,cen,7.19
2023-03-16T04:59:00,cen,12.01
2023-03-16T05:00:00,cen,8.39
2023-03-16T05:01:00,cen,7.19
2023-03-16T05:03:00,cen,13.21
2023-03-16T05:05:00,cen,14.40
2023-03-16T05:07:00,cen,13.20
2023-03-16T05:09:00,cen,13.20
2023-03-16T05:11:00,cen,13.20
2023-03-16T05:13:00,cen,12.00
2023-03-16T05:14:00,cen,4.80
2023-03-16T05:15:00,cen,5.99
2023-03-16T05:17:00,cen,10.81
2023-03-16T05:19:00,cen,9.59
2023-03-16T05:20:00,cen,4.80
2023-03-16T05:21:00,cen,4.79
2023-03-16T05:23:00,cen,14.41
2023-03-16T05:24:00,cen,14.40
2023-03-16T05:26:00,cen,25.20
2023-03-16T05:27:00,cen,13.20
2023-03-16T05:29:00,cen,15.60
2023-03-16T05:30:00,cen,3.60
2023-03-16T05:32:00,cen,9.59
2023-03-16T05:33:00,cen,4.80
2023-03-16T05:35:00,cen,9.59
2023-03-16T05:37:00,cen,8.41
2023-03-16T05:38:00,cen,4.79
2023-03-16T05:40:00,cen,10.81
2023-03-16T05:41:00,cen,4.79
2023-03-16T05:42:00,cen,4.80
2023-03-16T05:43:00,cen,4.80
2023-03-16T05:45:00,cen,10.80
2023-03-16T05:46:00,cen,4.80
2023-03-16T05:48:00,cen,10.80
2023-03-16T05:50:00,cen,9.59
2023-03-16T05:52:00,cen,10.80
2023-03-16T05:54:00,cen,12.01
2023-03-16T05:55:00,cen,4.79
2023-03-16T05:57:00,cen,12.01
2023-03-16T05:59:00,cen,10.80
2023-03-16T06:01:00,cen,9.59
2023-03-16T06:03:00,cen,12.00
2023-03-16T06:04:00,cen,4.80
2023-03-16T06:06:00,cen,10.80
2023-03-16T06:08:00,cen,12.01
2023-03-16T06:10:00,cen,12.00
2023-03-16T06:12:00,cen,12.00
2023-03-16T06:14:00,cen,9.59
2023-03-16T06:16:00,cen,10.81
2023-03-16T06:18:00,cen,10.80
2023-03-16T06:20:00,cen,12.00
2023-03-16T06:22:00,cen,9.59
2023-03-16T06:24:00,cen,9.61
2023-03-16T06:26:00,cen,10.80
2023-03-16T06:28:00,cen,10.80
2023-03-16T06:29:00,cen,3.60
2023-03-16T06:31:00,cen,10.80
2023-03-16T06:32:00,cen,6.01
2023-03-16T06:34:00,cen,10.80
2023-03-16T06:35:00,cen,4.80
2023-03-16T06:37:00,cen,10.80
2023-03-16T06:38:00,cen,4.80
2023-03-16T06:40:00,cen,10.80
2023-03-16T06:42:00,cen,12.00
2023-03-16T06:43:00,cen,6.01
2023-03-16T06:45:00,cen,10.80
2023-03-16T06:47:00,cen,10.81
2023-03-16T06:49:00,cen,10.80
2023-03-16T06:51:00,cen,9.59
2023-03-16T06:53:00,cen,10.80
2023-03-16T06:55:00,cen,10.81
2023-03-16T06:57:00,cen,10.80
2023-03-16T06:59:00,cen,9.59
2023-03-16T07:01:00,cen,9.61
2023-03-16T07:03:00,cen,9.59
2023-03-16T07:05:00,cen,15.60
2023-03-16T07:07:00,cen,15.60
2023-03-16T07:09:00,cen,14.40
2023-03-16T07:11:00,cen,16.80
2023-03-16T07:12:00,cen,8.39
2023-03-16T07:14:00,cen,14.40
2023-03-16T07:16:00,cen,14.40
2023-03-16T07:17:00,cen,9.61
2023-03-16T07:19:00,cen,14.40
2023-03-16T07:20:00,cen,7.19
2023-03-16T07:21:00,cen,7.19
2023-03-16T07:22:00,cen,7.21
2023-03-16T07:23:00,cen,15.60
2023-03-16T07:25:00,cen,14.40
2023-03-16T07:27:00,cen,15.60
2023-03-16T07:29:00,cen,15.60
2023-03-16T07:30:00,cen,7.19
2023-03-16T07:32:00,cen,15.60
2023-03-16T07:34:00,cen,15.60
2023-03-16T07:35:00,cen,7.21
2023-03-16T07:37:00,cen,15.60
2023-03-16T07:39:00,cen,15.60
2023-03-16T07:40:00,cen,7.19
2023-03-16T07:41:00,cen,8.41
2023-03-16T07:43:00,cen,15.60
2023-03-16T07:44:00,cen,7.19
2023-03-16T07:46:00,cen,15.60
2023-03-16T07:48:00,cen,15.60
2023-03-16T07:50:00,cen,18.00
2023-03-16T07:52:00,cen,15.60
2023-03-16T07:53:00,cen,7.19
2023-03-16T07:55:00,cen,15.60
2023-03-16T07:56:00,cen,7.21
2023-03-16T07:57:00,cen,8.39
2023-03-16T07:59:00,cen,16.80
2023-03-16T08:01:00,cen,16.80
2023-03-16T08:02:00,cen,8.39
2023-03-16T08:04:00,cen,16.80
2023-03-16T08:05:00,cen,9.61
2023-03-16T08:07:00,cen,17.99
2023-03-16T08:09:00,cen,24.01
2023-03-16T08:11:00,cen,32.40
2023-03-16T08:12:00,cen,19.19
2023-03-16T08:14:00,cen,40.81
2023-03-16T08:15:00,cen,20.39
2023-03-16T08:17:00,cen,39.61
2023-03-16T08:18:00,cen,12.00
2023-03-16T08:20:00,cen,28.80
2023-03-16T08:21:00,cen,15.60
2023-03-16T08:23:00,cen,31.20
2023-03-16T08:24:00,cen,15.60
2023-03-16T08:26:00,cen,34.80
2023-03-16T08:27:00,cen,16.79
2023-03-16T08:29:00,cen,27.61
2023-03-16T08:31:00,cen,27.60
2023-03-16T08:32:00,cen,18.00
2023-03-16T08:34:00,cen,32.39
2023-03-16T08:36:00,cen,37.21
2023-03-16T08:37:00,cen,18.00
2023-03-16T08:39:00,cen,28.80
2023-03-16T08:40:00,cen,14.40
2023-03-16T08:42:00,cen,28.80
2023-03-16T08:43:00,cen,14.40
2023-03-16T08:45:00,cen,28.80
2023-03-16T08:46:00,cen,14.40
2023-03-16T08:48:00,cen,27.60
2023-03-16T08:49:00,cen,14.40
2023-03-16T08:51:00,cen,28.80
2023-03-16T08:53:00,cen,27.60
2023-03-16T08:55:00,cen,27.61
2023-03-16T08:57:00,cen,27.60
2023-03-16T08:58:00,cen,15.60
2023-03-16T09:00:00,cen,30.00
2023-03-16T09:02:00,cen,27.60
2023-03-16T09:03:00,cen,14.40
2023-03-16T09:04:00,cen,13.20
2023-03-16T09:05:00,cen,13.20
2023-03-16T09:07:00,cen,28.80
2023-03-16T09:09:00,cen,28.80
2023-03-16T09:10:00,cen,13.20
2023-03-16T09:11:00,cen,14.41
2023-03-16T09:13:00,cen,27.60
2023-03-16T09:15:00,cen,30.00
2023-03-16T09:17:00,cen,28.80
2023-03-16T09:19:00,cen,27.60
2023-03-16T09:21:00,cen,28.80
2023-03-16T09:22:00,cen,14.40
2023-03-16T09:24:00,cen,30.00
2023-03-16T09:26:00,cen,28.80
2023-03-16T09:28:00,cen,28.80
2023-03-16T09:30:00,cen,31.20
2023-03-16T09:31:00,cen,15.60
2023-03-16T09:33:00,cen,32.40
2023-03-16T09:35:00,cen,31.20
2023-03-16T09:37:00,cen,32.40
2023-03-16T09:38:00,cen,14.40
2023-03-16T09:40:00,cen,34.79
2023-03-16T09:41:00,cen,14.40
2023-03-16T09:43:00,cen,31.20
2023-03-16T09:45:00,cen,30.00
2023-03-16T09:47:00,cen,33.60
2023-03-16T09:48:00,cen,22.81
2023-03-16T09:50:00,cen,46.79
2023-03-16T09:52:00,cen,42.01
2023-03-16T09:54:00,cen,31.20
2023-03-16T09:56:00,cen,31.20
2023-03-16T09:57:00,cen,14.40
2023-03-16T09:59:00,cen,33.59
2023-03-16T10:01:00,cen,28.80
2023-03-16T10:03:00,cen,31.20
2023-03-16T10:05:00,cen,28.80
2023-03-16T10:06:00,cen,16.80
2023-03-16T10:08:00,cen,32.40
2023-03-16T10:10:00,cen,32.40
2023-03-16T10:11:00,cen,16.80
2023-03-16T10:13:00,cen,32.40
2023-03-16T10:14:00,cen,14.40
2023-03-16T10:15:00,cen,16.80
2023-03-16T10:17:00,cen,34.79
2023-03-16T10:19:00,cen,36.01
2023-03-16T10:20:00,cen,16.80
2023-03-16T10:22:00,cen,32.40
2023-03-16T10:24:00,cen,33.59
2023-03-16T10:26:00,cen,37.21
2023-03-16T10:27:00,cen,18.00
2023-03-16T10:29:00,cen,33.59
2023-03-16T10:31:00,cen,32.40
2023-03-16T10:32:00,cen,15.60
2023-03-16T10:34:00,cen,32.40
2023-03-16T10:36:00,cen,33.60
2023-03-16T10:38:00,cen,32.40
2023-03-16T10:39:00,cen,17.99
2023-03-16T10:40:00,cen,18.00
2023-03-16T10:42:00,cen,34.80
2023-03-16T10:44:00,cen,34.80
2023-03-16T10:46:00,cen,32.39
2023-03-16T10:48:00,cen,32.40
2023-03-16T10:50:00,cen,33.60
2023-03-16T10:52:00,cen,33.60
2023-03-16T10:53:00,cen,15.60
2023-03-16T10:55:00,cen,32.40
2023-03-16T10:57:00,cen,31.20
2023-03-16T10:59:00,cen,32.39
2023-03-16T11:01:00,cen,32.40
2023-03-16T11:03:00,cen,34.80
2023-03-16T11:04:00,cen,16.80
2023-03-16T11:06:00,cen,33.60
2023-03-16T11:07:00,cen,15.60
2023-03-16T11:09:00,cen,33.59
2023-03-16T11:11:00,cen,31.20
2023-03-16T11:12:00,cen,15.60
2023-03-16T11:13:00,cen,15.60
2023-03-16T11:15:00,cen,32.40
2023-03-16T11:17:00,cen,31.20
2023-03-16T11:19:00,cen,33.60
2023-03-16T11:21:00,cen,32.39
2023-03-16T11:22:00,cen,16.80
2023-03-16T11:24:00,cen,31.20
2023-03-16T11:26:00,cen,30.00
2023-03-16T11:28:00,cen,30.00
2023-03-16T11:30:00,cen,30.00
2023-03-16T11:32:00,cen,28.80
2023-03-16T11:34:00,cen,39.61
2023-03-16T11:36:00,cen,45.60
2023-03-16T11:38:00,cen,42.00
2023-03-16T11:39:00,cen,20.41
2023-03-16T11:41:00,cen,34.79
2023-03-16T11:43:00,cen,28.80
2023-03-16T11:44:00,cen,14.40
2023-03-16T11:46:00,cen,28.80
2023-03-16T11:47:00,cen,15.60
2023-03-16T11:49:00,cen,30.00
2023-03-16T11:51:00,cen,28.80
2023-03-16T11:52:00,cen,13.21
2023-03-16T11:54:00,cen,28.80
2023-03-16T11:56:00,cen,28.80
2023-03-16T11:58:00,cen,27.60
2023-03-16T12:00:00,cen,30.00
2023-03-16T12:02:00,cen,28.80
2023-03-16T12:03:00,cen,15.60
2023-03-16T12:04:00,cen,15.60
2023-03-16T12:06:00,cen,26.40
2023-03-16T12:07:00,cen,14.40
2023-03-16T12:09:00,cen,24.01
2023-03-16T12:11:00,cen,27.60
2023-03-16T12:12:00,cen,12.00
2023-03-16T12:14:00,cen,25.20
2023-03-16T12:15:00,cen,12.00
2023-03-16T12:17:00,cen,25.21
2023-03-16T12:19:00,cen,25.20
2023-03-16T12:20:00,cen,13.20
2023-03-16T12:21:00,cen,14.40
2023-03-16T12:23:00,cen,26.40
2023-03-16T12:25:00,cen,25.21
2023-03-16T12:27:00,cen,25.20
2023-03-16T12:29:00,cen,27.60
2023-03-16T12:31:00,cen,27.60
2023-03-16T12:32:00,cen,13.21
2023-03-16T12:34:00,cen,33.59
2023-03-16T12:36:00,cen,27.60
2023-03-16T12:38:00,cen,26.41
2023-03-16T12:40:00,cen,28.80
2023-03-16T12:42:00,cen,27.60
2023-03-16T12:43:00,cen,13.20
2023-03-16T12:45:00,cen,28.80
2023-03-16T12:46:00,cen,12.00
2023-03-16T12:48:00,cen,28.80
2023-03-16T12:50:00,cen,30.00
2023-03-16T12:51:00,cen,13.21
2023-03-16T12:53:00,cen,26.40
2023-03-16T12:55:00,cen,25.20
2023-03-16T12:57:00,cen,26.40
2023-03-16T12:59:00,cen,25.21
2023-03-16T13:01:00,cen,22.79
2023-03-16T13:03:00,cen,24.01
2023-03-16T13:04:00,cen,12.00
2023-03-16T13:06:00,cen,26.40
2023-03-16T13:08:00,cen,28.80
2023-03-16T13:10:00,cen,28.80
2023-03-16T13:11:00,cen,12.00
2023-03-16T13:13:00,cen,26.41
2023-03-16T13:14:00,cen,16.79
2023-03-16T13:16:00,cen,26.41
2023-03-16T13:18:00,cen,26.40
2023-03-16T13:20:00,cen,26.40
2023-03-16T13:22:00,cen,27.60
2023-03-16T13:24:00,cen,25.21
2023-03-16T13:25:00,cen,12.00
2023-03-16T13:27:00,cen,25.20
2023-03-16T13:28:00,cen,13.20
2023-03-16T13:30:00,cen,27.60
2023-03-16T13:32:00,cen,26.41
2023-03-16T13:34:00,cen,26.40
2023-03-16T13:36:00,cen,27.60
2023-03-16T13:38:00,cen,30.00
2023-03-16T13:40:00,cen,32.40
2023-03-16T13:41:00,cen,22.79
2023-03-16T13:43:00,cen,44.40
2023-03-16T13:45:00,cen,44.41
2023-03-16T13:46:00,cen,14.40
2023-03-16T13:47:00,cen,14.40
2023-03-16T13:48:00,cen,14.40
2023-03-16T13:50:00,cen,26.40
2023-03-16T13:52:00,cen,27.60
2023-03-16T13:54:00,cen,28.80
2023-03-16T13:56:00,cen,26.40
2023-03-16T13:58:00,cen,26.41
2023-03-16T13:59:00,cen,13.20
2023-03-16T14:01:00,cen,26.40
2023-03-16T14:02:00,cen,16.80
2023-03-16T14:03:00,cen,13.20
2023-03-16T14:06:00,cen,28.80
2023-03-16T14:07:00,cen,26.40
2023-03-16T14:08:00,cen,26.40
2023-03-16T14:09:00,cen,27.60
2023-03-16T14:10:00,cen,14.40
2023-03-16T14:12:00,cen,26.41
2023-03-16T14:13:00,cen,13.20
2023-03-16T14:15:00,cen,27.60
2023-03-16T14:17:00,cen,27.60
2023-03-16T14:19:00,cen,26.40
2023-03-16T14:21:00,cen,27.61
2023-03-16T14:23:00,cen,25.20
2023-03-16T14:25:00,cen,26.40
2023-03-16T14:27:00,cen,27.60
2023-03-16T14:29:00,cen,25.21
2023-03-16T14:30:00,cen,12.00
2023-03-16T14:31:00,cen,13.20
2023-03-16T14:32:00,cen,13.20
2023-03-16T14:34:00,cen,27.60
2023-03-16T14:36:00,cen,26.40
2023-03-16T14:38:00,cen,30.00
2023-03-16T14:39:00,cen,13.21
2023-03-16T14:41:00,cen,30.00
2023-03-16T14:43:00,cen,28.80
2023-03-16T14:45:00,cen,30.00
2023-03-16T14:46:00,cen,14.40
2023-03-16T14:48:00,cen,30.00
2023-03-16T14:50:00,cen,33.59
2023-03-16T14:52:00,cen,32.40
2023-03-16T14:54:00,cen,30.00
2023-03-16T14:56:00,cen,38.41
2023-03-16T14:57:00,cen,23.99
2023-03-16T14:59:00,cen,44.40
2023-03-16T15:01:00,cen,34.80
2023-03-16T15:03:00,cen,28.80
2023-03-16T15:04:00,cen,14.40
2023-03-16T15:05:00,cen,16.80
2023-03-16T15:07:00,cen,30.00
2023-03-16T15:09:00,cen,28.80
2023-03-16T15:10:00,cen,14.40
2023-03-16T15:12:00,cen,30.00
2023-03-16T15:14:00,cen,31.20
2023-03-16T15:15:00,cen,14.40
2023-03-16T15:17:00,cen,33.60
2023-03-16T15:19:00,cen,30.00
2023-03-16T15:20:00,cen,15.60
2023-03-16T15:22:00,cen,30.00
2023-03-16T15:24:00,cen,32.39
2023-03-16T15:26:00,cen,28.81
2023-03-16T15:27:00,cen,14.40
2023-03-16T15:28:00,cen,13.20
2023-03-16T15:30:00,cen,30.00
2023-03-16T15:31:00,cen,15.60
2023-03-16T15:33:00,cen,28.80
2023-03-16T15:34:00,cen,14.40
2023-03-16T15:36:00,cen,28.80
2023-03-16T15:38:00,cen,28.80
2023-03-16T15:40:00,cen,27.60
2023-03-16T15:42:00,cen,27.60
2023-03-16T15:43:00,cen,14.40
2023-03-16T15:45:00,cen,28.80
2023-03-16T15:47:00,cen,27.61
2023-03-16T15:49:00,cen,26.40
2023-03-16T15:51:00,cen,27.60
2023-03-16T15:52:00,cen,13.20
2023-03-16T15:54:00,cen,28.80
2023-03-16T15:55:00,cen,12.00
2023-03-16T15:57:00,cen,28.80
2023-03-16T15:59:00,cen,26.41
2023-03-16T16:01:00,cen,27.60
2023-03-16T16:02:00,cen,14.40
2023-03-16T16:04:00,cen,27.60
2023-03-16T16:06:00,cen,28.80
2023-03-16T16:08:00,cen,27.60
2023-03-16T16:10:00,cen,28.80
2023-03-16T16:12:00,cen,27.61
2023-03-16T16:13:00,cen,14.40
2023-03-16T16:14:00,cen,14.40
2023-03-16T16:15:00,cen,27.60
2023-03-16T16:17:00,cen,27.60
2023-03-16T16:18:00,cen,13.20
2023-03-16T16:20:00,cen,28.80
2023-03-16T16:21:00,cen,13.20
2023-03-16T16:24:00,cen,39.61
2023-03-16T16:26:00,cen,26.40
2023-03-16T16:27:00,cen,14.40
2023-03-16T16:29:00,cen,26.40
2023-03-16T16:30:00,cen,10.80
2023-03-16T16:32:00,cen,20.41
2023-03-16T16:33:00,cen,9.59
2023-03-16T16:35:00,cen,21.61
2023-03-16T16:37:00,cen,19.20
2023-03-16T16:39:00,cen,17.99
2023-03-16T16:40:00,cen,8.41
2023-03-16T16:42:00,cen,21.59
2023-03-16T16:43:00,cen,9.61
2023-03-16T16:45:00,cen,16.80
2023-03-16T16:46:00,cen,8.39
2023-03-16T16:48:00,cen,16.80
2023-03-16T16:50:00,cen,15.60
2023-03-16T16:52:00,cen,16.80
2023-03-16T16:53:00,cen,9.59
2023-03-16T16:55:00,cen,15.60
2023-03-16T16:56:00,cen,7.21
2023-03-16T16:58:00,cen,15.60
2023-03-16T17:00:00,cen,16.80
2023-03-16T17:01:00,cen,7.19
2023-03-16T17:03:00,cen,15.60
2023-03-16T17:05:00,cen,15.60
2023-03-16T17:06:00,cen,8.39
2023-03-16T17:07:00,cen,7.21
2023-03-16T17:09:00,cen,15.60
2023-03-16T17:10:00,cen,8.39
2023-03-16T17:12:00,cen,15.60
2023-03-16T17:14:00,cen,19.20
2023-03-16T17:16:00,cen,33.60
2023-03-16T17:17:00,cen,15.60
2023-03-16T17:19:00,cen,27.60
2023-03-16T17:21:00,cen,15.60
2023-03-16T17:22:00,cen,7.19
2023-03-16T17:24:00,cen,16.80
2023-03-16T17:25:00,cen,8.41
2023-03-16T17:27:00,cen,16.80
2023-03-16T17:29:00,cen,15.60
2023-03-16T17:31:00,cen,15.59
2023-03-16T17:32:00,cen,7.21
2023-03-16T17:33:00,cen,8.39
2023-03-16T17:34:00,cen,7.21
2023-03-16T17:36:00,cen,14.40
2023-03-16T17:38:00,cen,15.60
2023-03-16T17:39:00,cen,9.59
2023-03-16T17:41:00,cen,15.60
2023-03-16T17:42:00,cen,6.01
2023-03-16T17:44:00,cen,15.60
2023-03-16T17:46:00,cen,14.40
2023-03-16T17:48:00,cen,18.00
2023-03-16T17:50:00,cen,14.40
2023-03-16T17:51:00,cen,8.39
2023-03-16T17:52:00,cen,7.21
2023-03-16T17:54:00,cen,14.40
2023-03-16T17:55:00,cen,8.39
2023-03-16T17:56:00,cen,7.21
2023-03-16T17:58:00,cen,15.60
2023-03-16T18:00:00,cen,15.60
2023-03-16T18:01:00,cen,8.39
2023-03-16T18:03:00,cen,14.40
2023-03-16T18:05:00,cen,15.60
2023-03-16T18:06:00,cen,15.60
2023-03-16T18:07:00,cen,7.21
2023-03-16T18:08:00,cen,14.40
2023-03-16T18:10:00,cen,14.40
2023-03-16T18:11:00,cen,7.19
2023-03-16T18:13:00,cen,16.80
2023-03-16T18:15:00,cen,15.60
2023-03-16T18:17:00,cen,14.40
2023-03-16T18:19:00,cen,13.20
2023-03-16T18:21:00,cen,16.80
2023-03-16T18:22:00,cen,7.21
2023-03-16T18:24:00,cen,14.40
2023-03-16T18:26:00,cen,15.60
2023-03-16T18:27:00,cen,7.19
2023-03-16T18:29:00,cen,15.60
2023-03-16T18:31:00,cen,14.40
2023-03-16T18:33:00,cen,15.60
2023-03-16T18:34:00,cen,7.21
2023-03-16T18:35:00,cen,8.39
2023-03-16T18:37:00,cen,15.60
2023-03-16T18:38:00,cen,15.60
2023-03-16T18:39:00,cen,14.40
2023-03-16T18:41:00,cen,15.60
2023-03-16T18:42:00,cen,6.01
2023-03-16T18:43:00,cen,8.39
2023-03-16T18:44:00,cen,8.39
2023-03-16T18:46:00,cen,15.60
2023-03-16T18:48:00,cen,13.21
2023-03-16T18:50:00,cen,15.59
2023-03-16T18:51:00,cen,7.21
2023-03-16T18:53:00,cen,15.60
2023-03-16T18:55:00,cen,14.40
2023-03-16T18:56:00,cen,7.21
2023-03-16T18:58:00,cen,14.40
2023-03-16T19:00:00,cen,16.79
2023-03-16T19:02:00,cen,16.80
2023-03-16T19:04:00,cen,15.60
2023-03-16T19:06:00,cen,16.80
2023-03-16T19:08:00,cen,15.60
2023-03-16T19:09:00,cen,9.59
2023-03-16T19:10:00,cen,7.21
2023-03-16T19:12:00,cen,14.40
2023-03-16T19:14:00,cen,15.60
2023-03-16T19:15:00,cen,7.21
2023-03-16T19:17:00,cen,17.99
2023-03-16T19:19:00,cen,15.60
2023-03-16T19:20:00,cen,7.21
2023-03-16T19:22:00,cen,15.60
2023-03-16T19:24:00,cen,14.40
2023-03-16T19:25:00,cen,8.39
2023-03-16T19:27:00,cen,15.60
2023-03-16T19:29:00,cen,15.60
2023-03-16T19:31:00,cen,15.60
2023-03-16T19:33:00,cen,16.80
2023-03-16T19:35:00,cen,14.40
2023-03-16T19:36:00,cen,7.21
2023-03-16T19:38:00,cen,15.60
2023-03-16T19:39:00,cen,7.19
2023-03-16T19:41:00,cen,15.60
2023-03-16T19:42:00,cen,8.39
2023-03-16T19:43:00,cen,7.21
2023-03-16T19:45:00,cen,14.40
2023-03-16T19:47:00,cen,14.40
2023-03-16T19:49:00,cen,15.60
2023-03-16T19:51:00,cen,15.60
2023-03-16T19:52:00,cen,8.39
2023-03-16T19:54:00,cen,14.40
2023-03-16T19:56:00,cen,15.60
2023-03-16T19:58:00,cen,16.80
2023-03-16T20:00:00,cen,13.20
2023-03-16T20:01:00,cen,8.41
2023-03-16T20:03:00,cen,13.20
2023-03-16T20:04:00,cen,7.19
2023-03-16T20:06:00,cen,21.61
2023-03-16T20:08:00,cen,31.20
2023-03-16T20:10:00,cen,32.40
2023-03-16T20:12:00,cen,20.39
2023-03-16T20:14:00,cen,16.80
2023-03-16T20:16:00,cen,14.40
2023-03-16T20:18:00,cen,15.60
2023-03-16T20:19:00,cen,7.21
2023-03-16T20:21:00,cen,15.60
2023-03-16T20:23:00,cen,18.00
2023-03-16T20:24:00,cen,8.39
2023-03-16T20:25:00,cen,7.21
2023-03-16T20:26:00,cen,8.39
2023-03-16T20:27:00,cen,7.21
2023-03-16T20:29:00,cen,14.40
2023-03-16T20:31:00,cen,10.80
2023-03-16T20:32:00,cen,5.99
2023-03-16T20:33:00,cen,4.80
2023-03-16T20:35:00,cen,12.00
2023-03-16T20:37:00,cen,12.01
2023-03-16T20:38:00,cen,5.99
2023-03-16T20:40:00,cen,10.80
2023-03-16T20:41:00,cen,4.80
2023-03-16T20:42:00,cen,4.80
2023-03-16T20:43:00,cen,4.79
2023-03-16T20:44:00,cen,4.80
2023-03-16T20:46:00,cen,10.80
2023-03-16T20:47:00,cen,4.80
2023-03-16T20:49:00,cen,9.59
2023-03-16T20:51:00,cen,9.61
2023-03-16T20:53:00,cen,9.59
2023-03-16T20:55:00,cen,10.80
2023-03-16T20:57:00,cen,9.61
2023-03-16T20:59:00,cen,9.59
2023-03-16T21:01:00,cen,9.61
2023-03-16T21:03:00,cen,9.59
2023-03-16T21:05:00,cen,9.59
2023-03-16T21:07:00,cen,10.81
2023-03-16T21:08:00,cen,4.79
2023-03-16T21:10:00,cen,10.80
2023-03-16T21:12:00,cen,9.61
2023-03-16T21:13:00,cen,4.80
2023-03-16T21:14:00,cen,5.99
2023-03-16T21:16:00,cen,9.59
2023-03-16T21:17:00,cen,4.80
2023-03-16T21:19:00,cen,10.80
2023-03-16T21:21:00,cen,9.61
2023-03-16T21:23:00,cen,8.39
2023-03-16T21:25:00,cen,10.81
2023-03-16T21:27:00,cen,10.80
2023-03-16T21:28:00,cen,4.79
2023-03-16T21:30:00,cen,9.61
2023-03-16T21:31:00,cen,4.80
2023-03-16T21:32:00,cen,4.79
2023-03-16T21:34:00,cen,9.61
2023-03-16T21:36:00,cen,10.80
2023-03-16T21:38:00,cen,9.59
2023-03-16T21:39:00,cen,6.01
2023-03-16T21:41:00,cen,9.59
2023-03-16T21:42:00,cen,6.01
2023-03-16T21:44:00,cen,9.59
2023-03-16T21:45:00,cen,4.80
2023-03-16T21:46:00,cen,4.79
2023-03-16T21:48:00,cen,9.61
2023-03-16T21:50:00,cen,10.80
2023-03-16T21:51:00,cen,4.80
2023-03-16T21:53:00,cen,12.00
2023-03-16T21:55:00,cen,9.59
2023-03-16T21:56:00,cen,6.01
2023-03-16T21:58:00,cen,9.59
2023-03-16T21:59:00,cen,4.80
2023-03-16T22:01:00,cen,9.59
2023-03-16T22:02:00,cen,4.80
2023-03-16T22:04:00,cen,10.80
2023-03-16T22:05:00,cen,4.80
2023-03-16T22:07:00,cen,10.80
2023-03-16T22:09:00,cen,9.61
2023-03-16T22:11:00,cen,9.59
2023-03-16T22:13:00,cen,9.59
2023-03-16T22:14:00,cen,4.80
2023-03-16T22:15:00,cen,7.21